TimeEST,TemperatureF,Dew PointF,Humidity,Sea Level PressureIn,VisibilityMPH,Wind Direction,Wind SpeedMPH,Gust SpeedMPH,PrecipitationIn,Events,Conditions,WindDirDegrees,DateUTC
12:46 AM,24.8,19.4,80,29.52,2.5,West,20.7,33.4,0.00,Snow,Light Snow,280,2013-01-31 05:46:00
12:54 AM,24.1,18.0,77,29.55,3.0,West,25.3,32.2,0.00,Snow,Light Snow,280,2013-01-31 05:54:00
1:01 AM,24.8,17.6,74,29.53,2.5,West,23.0,32.2,0.00,Snow,Light Snow,280,2013-01-31 06:01:00
1:12 AM,24.8,17.6,74,29.54,3.0,WNW,20.7,-,0.00,Snow,Light Snow,290,2013-01-31 06:12:00
1:26 AM,24.8,17.6,74,29.54,5.0,WNW,21.9,28.8,0.00,Snow,Light Snow,290,2013-01-31 06:26:00
1:54 AM,23.0,16.0,74,29.57,4.0,WNW,20.7,31.1,0.00,Snow,Light Snow,290,2013-01-31 06:54:00
2:11 AM,23.0,17.6,80,29.56,2.5,West,20.7,28.8,0.00,Snow,Light Snow,280,2013-01-31 07:11:00
2:19 AM,23.0,17.6,80,29.57,1.2,West,19.6,25.3,0.00,Snow,Light Snow,270,2013-01-31 07:19:00
2:36 AM,23.0,15.8,74,29.59,3.0,West,18.4,31.1,0.00,Snow,Light Snow,280,2013-01-31 07:36:00
2:54 AM,21.9,16.0,78,29.62,3.0,West,17.3,28.8,0.00,Snow,Light Snow,280,2013-01-31 07:54:00
3:14 AM,21.2,15.8,80,29.60,1.8,WNW,21.9,-,0.00,Snow,Light Snow,290,2013-01-31 08:14:00
3:23 AM,21.2,15.8,80,29.60,3.0,WNW,20.7,27.6,0.00,Snow,Light Snow,290,2013-01-31 08:23:00
3:54 AM,21.9,15.1,75,29.63,2.5,West,20.7,-,0.00,Snow,Light Snow,280,2013-01-31 08:54:00
3:59 AM,21.2,17.6,86,29.61,0.8,West,17.3,-,0.00,Snow,Light Snow,280,2013-01-31 08:59:00
4:12 AM,21.2,15.8,80,29.61,2.5,West,18.4,24.2,0.00,Snow,Light Snow,270,2013-01-31 09:12:00
4:20 AM,21.2,14.0,74,29.61,8.0,West,21.9,28.8,0.00,,Overcast,270,2013-01-31 09:20:00
4:54 AM,21.0,14.0,74,29.66,3.0,West,18.4,31.1,0.00,Snow,Light Snow,260,2013-01-31 09:54:00
5:21 AM,19.4,14.0,80,29.65,2.0,West,19.6,28.8,0.00,Snow,Light Snow,260,2013-01-31 10:21:00
5:54 AM,19.9,12.9,74,29.69,2.5,WSW,17.3,26.5,0.00,Snow,Light Snow,250,2013-01-31 10:54:00
6:07 AM,19.4,14.0,80,29.66,1.8,WSW,16.1,-,0.00,Snow,Light Snow,250,2013-01-31 11:07:00
6:17 AM,19.4,14.0,80,29.66,2.0,West,17.3,-,0.00,Snow,Light Snow,260,2013-01-31 11:17:00
6:54 AM,19.0,12.0,74,29.71,2.0,West,18.4,-,0.00,Snow,Light Snow,270,2013-01-31 11:54:00
7:21 AM,19.4,10.4,68,29.69,2.0,West,20.7,32.2,0.00,Snow,Light Snow,280,2013-01-31 12:21:00
7:27 AM,19.4,10.4,68,29.69,2.0,West,19.6,29.9,0.00,Snow,Light Snow,270,2013-01-31 12:27:00
7:50 AM,19.4,8.6,63,29.70,6.0,West,17.3,-,0.00,Snow,Light Snow,280,2013-01-31 12:50:00
7:54 AM,19.0,9.0,65,29.74,7.0,West,17.3,24.2,0.00,Snow,Light Snow,280,2013-01-31 12:54:00
8:18 AM,19.4,10.4,68,29.72,2.0,West,17.3,25.3,0.00,Snow,Light Snow,270,2013-01-31 13:18:00
8:20 AM,19.4,10.4,68,29.72,1.0,West,13.8,25.3,0.00,Snow,Light Snow,260,2013-01-31 13:20:00
8:34 AM,17.6,12.2,79,29.73,0.5,West,12.7,-,0.00,Snow,Snow,260,2013-01-31 13:34:00
8:54 AM,17.1,12.9,84,29.77,0.5,WSW,13.8,-,0.01,Fog-Snow,Snow,240,2013-01-31 13:54:00
9:31 AM,17.6,12.2,79,29.75,0.5,WSW,13.8,-,0.00,Fog-Snow,Snow,240,2013-01-31 14:31:00
9:54 AM,17.1,12.9,84,29.80,0.5,WSW,12.7,-,0.00,Fog-Snow,Snow,240,2013-01-31 14:54:00
10:44 AM,17.6,12.2,79,29.78,4.0,WSW,16.1,-,0.00,Snow,Light Snow,250,2013-01-31 15:44:00
10:54 AM,18.0,12.0,78,29.82,7.0,WSW,13.8,-,0.00,Snow,Light Snow,250,2013-01-31 15:54:00
11:11 AM,19.4,12.2,74,29.79,1.8,WSW,19.6,-,0.00,Snow,Light Snow,240,2013-01-31 16:11:00
11:18 AM,19.4,14.0,80,29.79,2.0,West,16.1,24.2,0.00,Snow,Light Snow,260,2013-01-31 16:18:00
11:27 AM,19.4,12.2,74,29.80,0.5,WSW,17.3,24.2,0.00,Snow,Snow,250,2013-01-31 16:27:00
11:54 AM,18.0,12.0,78,29.84,0.5,WSW,17.3,27.6,0.00,Snow,Snow,250,2013-01-31 16:54:00
12:20 PM,17.6,10.4,73,29.81,1.0,WSW,21.9,27.6,0.00,Snow,Light Snow,250,2013-01-31 17:20:00
12:54 PM,18.0,10.9,74,29.85,4.0,West,18.4,-,0.00,Snow,Light Snow,270,2013-01-31 17:54:00
1:29 PM,17.6,10.4,73,29.81,0.5,West,21.9,-,0.00,Snow,Snow,270,2013-01-31 18:29:00
1:40 PM,19.4,12.2,74,29.82,0.5,West,17.3,23.0,0.00,Snow,Snow,280,2013-01-31 18:40:00
1:47 PM,17.6,12.2,79,29.82,0.5,West,20.7,27.6,0.00,Snow,Heavy Snow,280,2013-01-31 18:47:00
1:50 PM,17.6,12.2,79,29.82,0.2,West,21.9,27.6,0.00,Fog-Snow,Heavy Snow,270,2013-01-31 18:50:00
1:54 PM,17.1,12.9,84,29.86,0.2,West,18.4,-,0.00,Fog-Snow,Heavy Snow,270,2013-01-31 18:54:00
1:57 PM,17.6,12.2,79,29.82,0.5,West,18.4,-,0.00,Fog-Snow,Light Snow,270,2013-01-31 18:57:00
2:54 PM,17.1,10.9,77,29.88,0.5,West,13.8,26.5,0.00,Snow,Snow,270,2013-01-31 19:54:00
3:54 PM,16.0,10.0,77,29.89,1.0,WSW,17.3,27.6,0.00,Snow,Light Snow,250,2013-01-31 20:54:00
4:12 PM,15.8,10.4,79,29.85,2.0,West,23.0,26.5,0.00,Snow,Light Snow,260,2013-01-31 21:12:00
4:23 PM,15.8,10.4,79,29.85,2.0,West,19.6,25.3,0.00,Snow,Light Snow,260,2013-01-31 21:23:00
4:25 PM,15.8,8.6,73,29.85,2.0,West,20.7,27.6,0.00,Snow,Light Snow,260,2013-01-31 21:25:00
4:54 PM,15.1,9.0,77,29.91,2.0,WSW,15.0,-,0.00,Snow,Light Snow,250,2013-01-31 21:54:00
5:45 PM,15.8,10.4,79,29.88,0.8,West,17.3,-,0.00,Snow,Light Snow,260,2013-01-31 22:45:00
5:54 PM,15.1,10.0,80,29.92,0.8,West,16.1,-,0.00,Snow,Light Snow,270,2013-01-31 22:54:00
6:54 PM,14.0,10.0,84,29.95,1.0,West,12.7,-,0.00,Snow,Light Snow,260,2013-01-31 23:54:00
7:54 PM,12.9,9.0,84,29.98,1.0,WSW,13.8,-,0.01,Snow,Light Snow,250,2013-02-01 00:54:00
8:01 PM,12.2,8.6,85,29.94,0.8,WSW,13.8,-,0.00,Snow,Light Snow,250,2013-02-01 01:01:00
8:18 PM,12.2,8.6,85,29.94,0.5,WSW,13.8,-,0.00,Fog-Snow,Snow,250,2013-02-01 01:18:00
8:44 PM,12.2,8.6,85,29.95,0.8,West,16.1,27.6,0.01,Snow,Light Snow,270,2013-02-01 01:44:00
8:54 PM,12.9,7.0,77,30.00,1.8,West,16.1,26.5,0.01,Snow,Light Snow,280,2013-02-01 01:54:00
9:54 PM,12.0,8.1,84,30.02,1.0,West,17.3,-,0.00,Snow,Light Snow,270,2013-02-01 02:54:00
10:06 PM,12.2,8.6,85,29.98,1.5,West,13.8,-,0.00,Snow,Light Snow,270,2013-02-01 03:06:00
10:27 PM,12.2,8.6,85,29.99,1.0,West,16.1,-,0.00,Snow,Light Snow,280,2013-02-01 03:27:00
10:44 PM,12.2,8.6,85,29.99,0.8,West,15.0,-,0.00,Snow,Light Snow,280,2013-02-01 03:44:00
10:54 PM,12.0,8.1,84,30.04,0.8,West,15.0,-,0.00,Snow,Light Snow,280,2013-02-01 03:54:00
11:03 PM,12.2,8.6,85,30.00,0.8,West,12.7,21.9,0.00,Snow,Light Snow,280,2013-02-01 04:03:00
11:43 PM,12.2,6.8,79,30.01,1.0,West,15.0,25.3,0.00,Snow,Light Snow,280,2013-02-01 04:43:00
11:54 PM,12.0,7.0,80,30.06,1.0,West,16.1,24.2,0.00,Snow,Light Snow,280,2013-02-01 04:54:00